Date String (YYYY-MM-DD hh:mm:ss) UTC,Instrument flags,Ambient pressure (hPa),Sample flow (lpm),Bypass flow (lpm),Sample temperature (°C),Ambient temperature (°C),ASC tube jacket temperature (°C),LED temperature (°C),Box temperature (°C),Sample RH (%),Span deviation,Mass concentration (μg/m³),Mass concentration (μg/m³),Mass concentration (μg/m³)
DateTimeUTC,F1_M11,P_M11,Q1_M11,Q2_M11,T1_M11,T2_M11,T3_M11,T4_M11,T5_M11,U1_M11,ZSPAN_M11,X0_M11,X2_M11,X1_M11
2023-05-22 06:00:00,,0832.6,4.99,0.00,30.0,28.3,00.0,38.4,31.5,17.6,0003.6,0021.09,0015.61,0014.77
2023-05-22 06:01:00,,0832.6,5.01,0.00,30.0,28.2,00.0,38.3,31.5,17.6,0003.7,0021.22,0015.65,0014.76
2023-05-22 06:02:00,,0832.6,5.02,0.00,30.0,28.2,00.0,38.3,31.5,17.6,0003.6,0021.14,0015.67,0014.76
2023-05-22 06:03:00,,0832.7,4.98,0.00,29.9,28.2,00.0,38.3,31.5,17.5,0003.6,0020.77,0015.60,0014.71
2023-05-22 06:04:00,,0832.7,5.00,0.00,29.9,28.2,00.0,38.3,31.5,17.5,0003.5,0020.55,0015.62,0014.71
2023-05-22 06:05:00,,0832.6,5.01,0.00,29.9,28.2,00.0,38.3,31.5,17.6,0003.5,0020.60,0015.65,0014.72
2023-05-22 06:06:00,,0832.6,5.00,0.00,29.9,28.2,00.0,38.3,31.5,17.5,0003.5,0020.76,0015.73,0014.77
2023-05-22 06:07:00,,0832.6,4.99,0.00,29.9,28.2,00.0,38.3,31.5,17.5,0003.7,0021.06,0015.76,0014.79
2023-05-22 06:08:00,,0832.6,5.01,0.00,29.9,28.2,00.0,38.3,31.5,17.5,0003.8,0021.60,0015.78,0014.79
2023-05-22 06:09:00,,0832.6,5.00,0.00,29.9,28.2,00.0,38.3,31.5,17.5,0003.7,0022.04,0015.78,0014.79
2023-05-22 06:10:00,,0832.6,5.00,0.00,29.9,28.2,00.0,38.3,31.5,17.5,0003.6,0021.91,0015.74,0014.78
2023-05-22 06:11:00,,0832.6,4.99,0.00,29.9,28.2,00.0,38.3,31.5,17.5,0003.5,0021.95,0015.76,0014.80
2023-05-22 06:12:00,,0832.7,5.01,0.00,29.9,28.2,00.0,38.3,31.4,17.5,0003.4,0022.22,0015.75,0014.81
2023-05-22 06:13:00,,0832.6,5.01,0.00,29.9,28.2,00.0,38.3,31.4,17.5,0003.5,0022.11,0015.72,0014.81
2023-05-22 06:14:00,,0832.6,4.99,0.00,29.9,28.1,00.0,38.3,31.4,17.6,0003.6,0022.29,0015.76,0014.83
2023-05-22 06:15:00,,0832.6,4.99,0.00,29.9,28.2,00.0,38.3,31.4,17.5,0003.6,0022.46,0015.78,0014.83
2023-05-22 06:16:00,,0832.5,5.00,0.00,29.9,28.2,00.0,38.3,31.4,17.5,0003.7,0022.59,0015.75,0014.82
2023-05-22 06:17:00,,0832.5,5.01,0.00,29.9,28.2,00.0,38.3,31.4,17.6,0003.6,0022.97,0015.72,0014.81
2023-05-22 06:18:00,,0832.6,5.00,0.00,29.9,28.2,00.0,38.3,31.4,17.7,0003.5,0022.79,0015.71,0014.78
2023-05-22 06:19:00,,0832.6,4.99,0.00,29.9,28.2,00.0,38.3,31.4,17.6,0003.4,0022.53,0015.72,0014.79
2023-05-22 06:20:00,,0832.7,5.00,0.00,29.9,28.2,00.0,38.3,31.4,17.7,0003.4,0022.90,0015.75,0014.79
2023-05-22 06:21:00,,0832.6,5.01,0.00,29.9,28.2,00.0,38.3,31.4,17.6,0003.5,0022.90,0015.75,0014.81
2023-05-22 06:22:00,,0832.6,5.01,0.00,29.9,28.2,00.0,38.3,31.4,17.6,0003.5,0023.05,0015.80,0014.84
2023-05-22 06:23:00,,0832.6,5.00,0.00,29.9,28.2,00.0,38.3,31.4,17.6,0003.6,0023.11,0015.80,0014.88
2023-05-22 06:24:00,,0832.6,5.00,0.00,29.9,28.2,00.0,38.3,31.4,17.6,0003.6,0022.97,0015.79,0014.90
2023-05-22 06:25:00,,0832.5,5.01,0.00,29.9,28.1,00.0,38.3,31.4,17.6,0003.7,0022.95,0015.78,0014.90
2023-05-22 06:26:00,,0832.5,5.00,0.00,29.9,28.1,00.0,38.3,31.4,17.6,0003.7,0022.78,0015.80,0014.93
2023-05-22 06:27:00,,0832.5,5.01,0.00,29.9,28.1,00.0,38.3,31.4,17.6,0003.7,0022.68,0015.81,0014.95
2023-05-22 06:28:00,,0832.5,4.99,0.00,29.9,28.1,00.0,38.3,31.4,17.7,0003.6,0022.23,0015.82,0014.94
2023-05-22 06:29:00,,0832.5,5.00,0.00,29.9,28.1,00.0,38.3,31.4,17.7,0003.5,0022.47,0015.83,0014.94
2023-05-22 06:30:00,,0832.5,5.01,0.00,29.9,28.1,00.0,38.3,31.4,17.6,0003.6,0022.79,0015.84,0014.97
2023-05-22 06:31:00,,0832.5,5.00,0.00,29.9,28.1,00.0,38.3,31.4,17.6,0003.6,0021.80,0015.81,0014.99
2023-05-22 06:32:00,,0832.5,5.00,0.00,29.9,28.1,00.0,38.3,31.4,17.6,0003.6,0021.68,0015.84,0015.02
2023-05-22 06:33:00,,0832.5,5.00,0.00,29.8,28.1,00.0,38.3,31.4,17.7,0003.5,0021.73,0015.87,0015.03
2023-05-22 06:34:00,,0832.5,5.00,0.00,29.8,28.1,00.0,38.2,31.4,17.7,0003.3,0021.20,0015.89,0015.02
2023-05-22 06:35:00,,0832.5,5.00,0.00,29.8,28.1,00.0,38.2,31.4,17.7,0003.3,0021.21,0015.90,0015.02
2023-05-22 06:36:00,,0832.5,5.00,0.00,29.8,28.1,00.0,38.2,31.4,17.7,0003.2,0021.23,0015.94,0015.05
2023-05-22 06:37:00,,0832.5,5.01,0.00,29.8,28.0,00.0,38.2,31.4,17.6,0003.1,0021.30,0015.95,0015.06
2023-05-22 06:38:00,,0832.5,5.00,0.00,29.8,28.0,00.0,38.2,31.4,17.7,0002.9,0021.38,0015.97,0015.10
2023-05-22 06:39:00,,0832.5,5.00,0.00,29.8,28.0,00.0,38.2,31.3,17.7,0002.8,0021.45,0016.03,0015.15
2023-05-22 06:40:00,,0832.5,5.00,0.00,29.8,28.0,00.0,38.2,31.3,17.7,0002.9,0021.43,0016.03,0015.18
2023-05-22 06:41:00,,0832.5,5.00,0.00,29.8,28.0,00.0,38.2,31.3,17.7,0002.9,0021.01,0016.00,0015.17
2023-05-22 06:42:00,,0832.4,5.00,0.00,29.8,28.0,00.0,38.2,31.3,17.7,0002.9,0021.05,0015.99,0015.15
2023-05-22 06:43:00,,0832.4,5.00,0.00,29.8,28.0,00.0,38.2,31.3,17.7,0002.8,0021.00,0015.98,0015.12
2023-05-22 06:44:00,,0832.4,5.00,0.00,29.8,28.0,00.0,38.2,31.3,17.7,0002.8,0020.95,0015.98,0015.13
2023-05-22 06:45:00,,0832.3,5.00,0.00,29.8,28.0,00.0,38.2,31.3,17.7,0002.9,0020.97,0015.99,0015.14
2023-05-22 06:46:00,,0832.3,5.01,0.00,29.8,28.0,00.0,38.2,31.3,17.7,0002.9,0021.04,0016.04,0015.18
2023-05-22 06:47:00,,0832.3,4.99,0.00,29.8,28.0,00.0,38.2,31.3,17.7,0002.8,0021.15,0016.07,0015.19
2023-05-22 06:48:00,,0832.3,5.00,0.00,29.8,28.0,00.0,38.2,31.3,17.7,0002.8,0021.46,0016.10,0015.18
2023-05-22 06:49:00,,0832.3,4.99,0.00,29.8,28.0,00.0,38.2,31.3,17.7,0002.8,0022.01,0016.14,0015.17
2023-05-22 06:50:00,,0832.3,5.00,0.00,29.8,28.0,00.0,38.2,31.3,17.7,0002.9,0022.03,0016.17,0015.19
2023-05-22 06:51:00,,0832.3,4.99,0.00,29.8,28.0,00.0,38.2,31.3,17.7,0003.0,0021.92,0016.17,0015.19
2023-05-22 06:52:00,,0832.3,5.00,0.00,29.8,28.0,00.0,38.2,31.3,17.7,0002.9,0021.76,0016.19,0015.19
2023-05-22 06:53:00,,0832.3,5.00,0.00,29.8,28.0,00.0,38.2,31.3,17.7,0002.9,0021.77,0016.21,0015.23
2023-05-22 06:54:00,,0832.3,5.00,0.00,29.8,28.0,00.0,38.2,31.3,17.7,0003.0,0021.75,0016.23,0015.25
2023-05-22 06:55:00,,0832.3,4.99,0.00,29.8,28.0,00.0,38.2,31.3,17.7,0003.1,0021.74,0016.23,0015.26
2023-05-22 06:56:00,,0832.3,4.99,0.00,29.8,28.0,00.0,38.2,31.3,17.8,0003.1,0021.72,0016.24,0015.28
2023-05-22 06:57:00,,0832.3,5.00,0.00,29.7,28.0,00.0,38.2,31.3,17.7,0003.2,0021.69,0016.21,0015.26
2023-05-22 06:58:00,,0832.3,5.00,0.00,29.7,28.0,00.0,38.2,31.3,17.7,0003.3,0021.76,0016.22,0015.27
2023-05-22 06:59:00,,0832.3,5.01,0.00,29.7,28.0,00.0,38.1,31.3,17.7,0003.5,0021.77,0016.21,0015.28
